Location: Sungai Buloh
(3.1000°N, 113.0000°E)
Time: 18:58:56
(UTC+00:00)

SeaSat 1 - Pass Details

Date: 12 January 2026
Orbit: 737 x 739 km, 108.0° (Epoch: 10 February)

Event Time Altitude Azimuth Distance (km) Brightness Sun altitude
Rises 21:49:37 0° 12° (NNE) 3,158 5.6 -12.0°
Reaches altitude 10° 21:51:55 10° 7° (N) 2,237 4.8 -11.5°
Maximum altitude 21:56:37 50° 292° (WNW) 934 2.6 -10.4°
Drops below altitude 10° 22:01:20 10° 217° (SW) 2,243 4.8 -9.3°
Sets 22:03:39 0° 212° (SSW) 3,167 5.6 -8.8°
